Weather History for Reno, NV

Change the Weather History Date:

Friday, December 21, 2012

  Actual Average Record
Temperature  
Mean Temperature 45 °F 34 °F  
Max Temperature 54 °F 45 °F 63 °F (2000)
Min Temperature 35 °F 24 °F -8 °F (1990)
Degree Days  
Heating Degree Days 20 31  
Month to date heating degree days 530 614  
Since 1 July heating degree days 1329 1717  
Cooling Degree Days 0 0  
Month to date cooling degree days 0 0  
Year to date cooling degree days 1272 839  
Moisture  
Dew Point 20 °F    
Average Humidity 49    
Maximum Humidity 82    
Minimum Humidity 15    
Precipitation  
Precipitation 0.01 in 0.04 in 0.93 in (1996)
Month to date precipitation 1.01 0.66  
Year to date precipitation 4.67 7.03  
Snow  
Snow T in 0.20 in 2.00 in (1971)
Month to date snowfall 0.4 2.7  
Since 1 July snowfall 1.2 6.2  
Snow Depth 0.00 in    
Sea Level Pressure  
Sea Level Pressure 29.80 in    
Wind  
Wind Speed 26 mph (South)    
Max Wind Speed 49 mph    
Max Gust Speed 63 mph    
Visibility 9 miles    
Events Rain , Snow    
T = Trace of Precipitation, MM = Missing Value Source: NWS Daily Summary

Daily Weather History Graph

Daily Weather History Graph

Search for Another Location

Airport:

Trip Planner

Search our weather history database for the weather conditions in past years. The results will help you decide how hot, cold, wet, or windy it might be!

Date:

Astronomy

Dec. 21, 2012 Rise Set
Actual Time 7:16 AM PST 4:38 PM PST
Civil Twilight 6:45 AM PST 5:09 PM PST
Nautical Twilight 6:12 AM PST 5:43 PM PST
Astronomical Twilight 5:39 AM PST 6:15 PM PST
Moon 12:27 PM PST (12/21) 1:08 AM PST (12/21)
Length of Visible Light 10h 23m
Length of Day
9h 22m
Waxing Gibbous, 66% of the Moon is Illuminated
Dec 21
Waxing Gibbous
Dec 28
Full
Jan 4
Last Quarter
Jan 11
New
Jan 18
First Quarter

Hourly Weather History & Observations

Time (PST) Temp. Windchill Dew Point Humidity Pressure Visibility Wind Dir Wind Speed Gust Speed Precip Events Conditions
12:55 AM 46.9 °F - 10.9 °F 23% 29.80 in 10.0 mi SSE 21.9 mph 33.4 mph N/A   Clear
1:55 AM 46.9 °F - 10.0 °F 22% 29.80 in 10.0 mi SSE 20.7 mph 31.1 mph N/A   Partly Cloudy
2:55 AM 46.9 °F - 10.0 °F 22% 29.79 in 10.0 mi SSE 24.2 mph 35.7 mph N/A   Clear
3:55 AM 46.9 °F - 9.0 °F 21% 29.78 in 10.0 mi South 20.7 mph 31.1 mph N/A   Clear
4:55 AM 46.9 °F - 9.0 °F 21% 29.76 in 10.0 mi SSE 28.8 mph 41.4 mph N/A   Partly Cloudy
5:55 AM 48.0 °F - 9.0 °F 21% 29.75 in 10.0 mi SSE 25.3 mph 35.7 mph N/A   Partly Cloudy
6:55 AM 48.0 °F - 8.1 °F 20% 29.76 in 10.0 mi South 24.2 mph 34.5 mph N/A   Scattered Clouds
7:55 AM 48.9 °F - 8.1 °F 19% 29.75 in 10.0 mi SSE 23.0 mph 36.8 mph N/A   Mostly Cloudy
8:55 AM 51.1 °F - 8.1 °F 18% 29.75 in 10.0 mi South 31.1 mph 47.2 mph N/A   Overcast
9:55 AM 52.0 °F - 9.0 °F 18% 29.76 in 10.0 mi South 24.2 mph 33.4 mph N/A   Mostly Cloudy
10:55 AM 53.1 °F - 7.0 °F 16% 29.75 in 10.0 mi South 27.6 mph 36.8 mph N/A   Mostly Cloudy
11:55 AM 53.1 °F - 8.1 °F 16% 29.75 in 10.0 mi SSE 33.4 mph 44.9 mph N/A   Overcast
12:55 PM 46.9 °F - 19.9 °F 34% 29.78 in 10.0 mi South 42.6 mph 56.4 mph N/A   Overcast
1:55 PM 41.0 °F 29.0 °F 26.1 °F 55% 29.79 in 10.0 mi SW 35.7 mph 48.3 mph N/A   Overcast
2:34 PM 37.4 °F 23.8 °F 32.0 °F 81% 29.88 in 2.5 mi South 36.8 mph 47.2 mph 0.00 in Snow Light Snow
2:40 PM 39.2 °F 26.5 °F 30.2 °F 70% 29.88 in 4.0 mi SSW 35.7 mph 48.3 mph 0.00 in   Unknown
2:46 PM 39.2 °F 26.3 °F 30.2 °F 70% 29.86 in 6.0 mi South 36.8 mph 49.5 mph 0.00 in   Unknown
2:55 PM 41.0 °F 28.6 °F 28.9 °F 62% 29.82 in 10.0 mi South 38.0 mph 48.3 mph 0.00 in Rain Light Rain
3:55 PM 39.9 °F 28.6 °F 26.1 °F 58% 29.81 in 9.0 mi SSW 28.8 mph 40.3 mph 0.00 in   Scattered Clouds
4:55 PM 37.0 °F 25.9 °F 28.9 °F 73% 29.85 in 8.0 mi SSW 23.0 mph 36.8 mph 0.00 in Snow Light Snow
5:15 PM 35.6 °F 22.3 °F 30.2 °F 81% 29.87 in 2.0 mi SSW 31.1 mph 42.6 mph 0.00 in Snow Light Snow
5:21 PM 35.6 °F 24.5 °F 30.2 °F 81% 29.86 in 4.0 mi SW 20.7 mph 39.1 mph 0.00 in Snow Light Snow
5:55 PM 36.0 °F 22.0 °F 30.0 °F 79% 29.82 in 9.0 mi SSW 35.7 mph 41.4 mph 0.00 in Snow Light Snow
6:55 PM 37.9 °F 25.9 °F 28.0 °F 68% 29.81 in 10.0 mi South 28.8 mph 36.8 mph 0.00 in   Scattered Clouds
7:55 PM 37.9 °F 27.1 °F 30.9 °F 76% 29.81 in 10.0 mi SSW 23.0 mph 31.1 mph 0.00 in Rain Light Rain
8:55 PM 37.9 °F 29.6 °F 32.0 °F 79% 29.81 in 10.0 mi SSW 13.8 mph - 0.01 in Rain Light Rain
9:55 PM 39.0 °F 30.3 °F 28.0 °F 65% 29.80 in 10.0 mi South 16.1 mph - 0.00 in   Scattered Clouds
10:55 PM 41.0 °F 31.4 °F 25.0 °F 53% 29.79 in 10.0 mi South 21.9 mph - N/A   Partly Cloudy
11:55 PM 43.0 °F 34.2 °F 24.1 °F 47% 29.77 in 10.0 mi South 20.7 mph 35.7 mph N/A   Scattered Clouds